Voltar ao catálogo

BREEZE-M DEB

LostHEO
NORAD 32490·DEBRIS·🇷🇺 Russia

Lançado Feb 28, 2006 de Baikonur Cosmodrome

Loading…

Próximas Passagens (próximas 24 horas)

TLE

ObsoletoSource: Space-Track

Época: Dec 8, 2013, 11:40 UTC

1 32490U 06006AD  13342.48638403  .00809980  00000-0  44770+0 0  9994
2 32490 051.8767 099.0079 4395782 072.4135 330.0497 06.49845543156611

Acompanhe BREEZE-M DEB em tempo real com AllMySat

Download on the App Store